This is the latest recevied weather packets stored in our database for station/object YN3ZBQ-13. If no packets are shown the sender has not sent any weather packets the latest 10 day(s).
| Time | Temp. | Humidity | Pressure | Rain* | Wind** | Luminosity | Snow |
|---|---|---|---|---|---|---|---|
| 1777579250 | 34.44° C | 36% | 1005 hPa | 0 mm | - | - | - |
| 1777578650 | 31.67° C | 28% | 1005 hPa | 0 mm | - | - | - |
| 1777578050 | 32.22° C | 28% | 1005 hPa | 0 mm | - | - | - |
| 1777577450 | 32.78° C | 28% | 1005 hPa | 0 mm | - | - | - |
| 1777576849 | 33.33° C | 28% | 1006 hPa | 0 mm | - | - | - |
| 1777576249 | 33.89° C | 28% | 1006 hPa | 0 mm | - | - | - |
| 1777575648 | 34.44° C | 28% | 1006 hPa | 0 mm | - | - | - |
| 1777575048 | 32.22° C | 40% | 1006 hPa | 0 mm | - | - | - |
| 1777574448 | 32.22° C | 40% | 1006 hPa | 0 mm | - | - | - |
| 1777573848 | 32.78° C | 40% | 1008 hPa | 0 mm | - | - | - |
| 1777573247 | 32.78° C | 40% | 1008 hPa | 0 mm | - | - | - |
| 1777572647 | 33.33° C | 40% | 1008 hPa | 0 mm | - | - | - |
| 1777572047 | 32.22° C | 31% | 1008 hPa | 0 mm | - | - | - |
| 1777571446 | 32.78° C | 31% | 1008 hPa | 0 mm | - | - | - |
| 1777570846 | 33.33° C | 31% | 1008 hPa | 0 mm | - | - | - |
| 1777570246 | 33.89° C | 31% | 1008 hPa | 0 mm | - | - | - |
| 1777569646 | 32.22° C | 36% | 1009 hPa | 0 mm | - | - | - |
| 1777569045 | 32.78° C | 36% | 1009 hPa | 0 mm | - | - | - |
| 1777568445 | 32.22° C | 33% | 1009 hPa | 0 mm | - | - | - |
| 1777567844 | 32.78° C | 33% | 1009 hPa | 0 mm | - | - | - |
| 1777567244 | 33.33° C | 33% | 1009 hPa | 0 mm | - | - | - |
| 1777566644 | 33.33° C | 33% | 1009 hPa | 0 mm | - | - | - |
| 1777566044 | 33.89° C | 33% | 1009 hPa | 0 mm | - | - | - |
| 1777565444 | 31.11° C | 40% | 1009 hPa | 0 mm | - | - | - |
| 1777564843 | 31.11° C | 40% | 1009 hPa | 0 mm | - | - | - |
* Rain latest hour (hover to see other rain measurements)
** Current wind speed in m/s (hover to see current wind gust speed)